Theta_e
322 324 325 325 325 325 322 321 323 326 327 329 332 332 331 328 327 328 327 324 317 315 322 320 316 317 316 316 316 314 311 311 312 310 309 309 308 308 307 306 306 305 304 303 303 304 304 305 306 306 308 311 312 312 314 315 316 317 317 318 318 318 319 319 318 318 320 320 318 317 318 318 318 319 320 319 319 319 318 318 320 320 321 322 322 321
321 323 325 326 323 322 320 318 319 322 322 325 327 324 325 326 325 325 322 321 316 315 324 322 317 318 315 314 314 313 313 314 314 313 312 310 308 308 307 307 306 305 305 304 302 302 303 304 305 306 308 311 311 312 314 315 315 316 316 317 317 317 317 317 317 316 317 317 317 317 317 317 316 316 318 318 317 317 317 318 318 319 319 320 320 320
322 324 324 321 318 318 318 316 316 319 318 322 325 321 324 327 323 324 322 319 316 316 325 326 319 318 317 315 314 313 313 313 312 312 312 312 311 309 308 307 307 306 307 307 303 301 302 303 304 305 307 310 311 312 313 314 315 315 315 315 316 316 315 315 316 316 315 315 316 318 317 316 315 314 316 317 316 316 316 316 316 317 317 317 318 318
325 328 323 317 319 320 319 319 317 318 318 320 324 322 325 326 322 324 324 319 316 316 321 324 319 316 316 315 316 314 314 313 312 312 312 311 312 311 310 309 308 307 307 307 304 301 300 302 303 304 306 309 310 311 312 313 314 314 314 314 314 315 315 313 314 314 314 313 314 316 315 313 314 313 313 314 313 313 313 313 313 314 314 314 316 316
325 326 318 316 320 320 320 322 320 321 323 324 323 322 324 325 323 324 324 322 323 323 319 319 322 324 323 321 320 318 317 316 314 313 314 312 311 311 311 310 309 308 307 306 305 302 300 300 302 303 305 307 308 309 311 313 313 313 313 313 313 314 313 311 312 313 313 312 312 312 309 308 310 309 309 309 308 308 310 310 311 312 312 312 313 314
324 320 317 319 319 319 321 323 325 325 325 327 326 324 322 323 323 322 323 323 328 332 322 318 326 337 336 331 327 325 325 324 319 317 317 315 312 312 312 310 309 309 308 306 305 302 300 300 301 302 304 306 307 309 311 313 313 313 313 312 312 312 311 310 310 313 313 312 313 312 308 306 306 304 304 306 307 307 309 310 310 310 310 310 312 312
322 318 320 325 322 321 322 322 327 324 321 326 328 325 320 320 321 322 323 324 329 333 321 317 327 334 332 328 328 330 331 330 324 321 320 318 315 315 313 311 310 309 308 307 305 302 301 301 301 301 303 305 307 308 310 312 312 312 312 312 310 310 311 309 310 311 312 313 313 313 312 310 308 305 303 304 307 308 309 309 309 309 309 309 310 310
322 319 319 324 326 325 323 324 325 320 323 330 326 323 320 318 321 323 323 323 328 329 322 322 327 328 326 324 325 325 324 326 323 322 320 318 317 317 315 313 311 310 308 307 305 303 301 300 300 301 302 304 307 308 310 311 310 311 312 311 309 309 311 311 310 310 311 313 313 312 312 311 309 309 307 305 305 307 309 309 308 307 307 307 307 308
320 323 322 321 324 324 326 330 326 318 324 328 321 320 321 321 326 329 328 327 325 325 327 326 323 325 329 330 327 323 322 326 325 323 321 318 319 318 318 317 313 309 307 306 305 303 301 300 301 302 302 304 306 308 309 310 309 310 310 310 309 308 310 310 310 310 310 312 312 312 312 309 306 307 308 306 305 306 307 307 306 305 305 305 305 306
317 320 319 319 321 323 327 329 322 318 322 320 317 322 324 324 329 331 332 331 328 327 328 328 324 325 329 331 328 324 325 328 325 322 321 319 320 319 319 319 315 310 307 306 305 302 300 301 301 301 302 304 306 307 309 309 308 309 309 308 308 308 308 309 309 309 310 310 311 311 312 310 306 306 305 304 304 304 304 304 303 301 302 302 303 303
318 314 314 319 321 321 325 321 316 319 320 317 322 330 331 331 331 332 331 328 329 329 327 328 327 325 328 332 331 326 327 331 326 324 327 327 329 329 325 321 316 312 308 306 304 301 300 300 301 301 302 303 305 307 308 308 307 307 307 306 307 308 308 309 310 309 309 310 310 310 311 310 309 307 304 302 301 301 301 301 299 299 299 301 302 302
319 316 317 319 319 320 324 320 316 317 317 321 332 335 332 333 330 330 331 327 330 331 325 324 323 322 327 331 330 325 326 327 325 326 332 336 338 339 334 325 318 312 307 306 305 302 300 299 300 301 302 303 304 306 307 307 306 306 306 306 306 306 307 309 309 308 308 309 309 309 310 311 310 309 306 303 301 299 298 297 296 296 296 297 298 297
321 324 323 318 315 319 325 325 320 317 317 323 332 330 328 331 329 329 330 327 328 327 319 318 321 322 323 325 325 324 323 324 322 321 326 330 330 331 330 323 317 312 307 305 304 303 301 300 299 299 301 301 302 304 305 306 305 305 305 305 305 305 306 307 308 307 308 309 308 308 308 310 310 308 307 305 302 299 296 295 293 292 293 293 292 291
323 325 322 318 317 319 322 323 323 321 320 323 326 328 329 330 331 335 332 325 326 325 317 314 320 324 324 325 323 320 319 320 321 320 321 321 320 321 321 317 315 312 308 305 303 302 301 300 299 299 300 300 301 302 304 304 305 304 304 304 305 305 306 306 306 306 307 307 307 307 307 308 308 307 305 304 303 299 294 292 291 290 290 290 290 290
322 322 322 319 321 321 318 319 324 324 321 321 324 325 329 331 334 337 334 330 329 329 321 315 321 330 330 327 323 320 321 321 321 320 317 315 313 314 315 314 314 312 307 304 302 302 300 298 299 299 300 300 300 301 302 303 304 303 303 303 303 304 305 304 304 304 305 305 305 306 306 306 306 305 304 302 302 298 293 290 290 290 290 290 290 290
320 324 325 319 318 319 318 319 324 324 320 321 323 324 327 329 327 325 326 326 326 328 326 321 324 330 329 324 321 321 325 325 322 320 318 316 313 314 317 314 313 313 307 303 302 302 300 298 298 299 299 300 300 300 301 302 303 303 303 303 303 304 304 303 303 303 304 304 305 305 304 304 304 303 302 300 299 296 292 290 290 290 290 290 290 290
322 326 322 316 318 318 317 320 322 322 322 321 321 324 323 321 322 324 323 320 319 323 327 325 326 329 327 324 322 320 324 324 321 322 322 319 315 317 321 316 312 311 307 303 302 301 299 298 298 299 299 299 299 299 300 301 302 303 303 303 303 303 303 303 302 302 303 303 304 303 303 302 301 301 300 298 297 294 291 289 289 289 289 290 290 290
325 327 320 316 320 316 313 320 321 319 320 322 324 324 320 319 324 328 327 326 326 327 328 325 326 329 328 327 323 320 321 321 320 321 320 318 318 319 320 316 312 310 306 303 301 300 298 296 297 298 298 299 299 299 300 301 302 302 303 304 303 302 302 302 302 302 302 302 302 302 301 301 300 299 298 298 296 293 290 289 289 289 289 289 289 290
322 323 320 316 319 315 312 319 323 317 315 321 326 323 322 327 329 325 326 332 332 330 330 327 324 324 324 326 324 322 328 331 327 322 320 323 325 324 324 321 315 310 306 302 301 301 298 296 296 298 298 298 299 299 299 300 300 301 302 303 303 303 303 303 302 301 301 301 301 302 301 300 299 297 296 296 294 291 289 289 288 289 289 289 289 289
321 319 322 316 314 316 316 319 323 320 315 317 319 318 321 327 327 325 326 327 329 330 331 329 326 325 324 325 325 323 329 335 330 325 327 332 332 332 333 326 317 312 307 303 301 301 298 296 296 297 298 298 298 298 298 299 299 300 300 301 302 303 303 302 301 300 299 299 300 301 301 299 297 295 294 293 292 290 289 289 289 289 289 289 289 289
321 318 322 318 313 317 321 320 321 321 318 319 320 320 320 321 322 325 324 323 328 331 331 330 328 328 327 324 324 323 324 326 328 330 336 338 335 336 333 321 315 313 308 303 301 300 298 295 295 297 297 297 298 298 298 298 298 299 300 300 300 301 301 300 299 299 298 298 299 300 299 297 295 293 292 291 290 290 289 288 289 289 289 289 289 288
321 320 324 323 317 320 323 319 317 318 318 319 320 321 320 320 322 325 323 323 325 326 329 331 327 326 329 324 321 322 322 321 323 328 338 340 338 342 333 317 313 315 310 304 301 300 297 295 295 296 296 296 297 296 297 297 297 298 299 299 299 299 299 299 298 297 297 297 297 298 297 295 293 291 290 289 289 289 288 288 289 289 289 288 288 288
323 326 327 325 321 321 320 315 313 317 318 317 319 322 321 319 322 326 326 324 324 323 324 326 326 325 325 322 321 322 323 324 320 322 334 339 337 341 332 316 314 314 308 304 302 299 296 294 295 295 295 295 295 295 296 296 296 297 297 298 298 297 297 298 297 297 296 296 296 296 295 293 291 290 289 288 288 288 288 288 289 289 288 288 288 288
322 325 324 324 324 323 322 317 315 315 316 317 320 323 322 319 320 324 325 324 326 326 323 324 327 324 318 320 322 320 319 320 316 316 327 335 335 338 330 318 317 314 307 303 302 298 295 294 294 294 293 294 294 294 295 295 296 296 296 297 297 296 296 297 297 296 295 295 295 294 294 292 290 289 288 288 288 288 288 288 288 288 288 288 288 287
320 324 325 326 326 326 325 322 319 315 315 320 323 321 320 320 320 321 322 322 325 327 325 326 328 322 320 323 322 319 317 319 319 317 320 327 332 335 330 321 316 313 308 304 302 299 297 296 294 293 293 293 293 294 294 295 295 295 295 296 295 295 296 296 296 296 294 294 294 293 293 291 290 289 288 287 287 288 288 288 288 288 287 287 287 287
319 323 324 323 324 324 324 324 324 319 316 319 323 321 319 319 320 320 322 322 324 324 324 326 325 322 325 325 320 319 319 321 325 322 318 322 324 326 328 322 314 312 310 306 302 300 298 296 294 293 293 293 293 293 294 294 294 295 295 295 295 295 295 296 295 295 294 294 293 293 292 291 290 289 288 287 287 287 288 288 288 287 287 287 287 286
324 323 320 321 322 320 320 324 325 322 318 319 321 320 318 319 319 320 322 323 324 325 323 323 323 323 326 325 322 325 326 325 327 326 326 327 324 322 322 317 311 311 310 306 302 300 298 297 295 293 293 293 293 293 294 294 294 294 294 294 294 294 295 295 295 294 294 293 293 293 292 291 290 289 288 287 287 287 287 287 287 287 287 286 286 286
328 325 320 321 321 319 319 323 324 322 320 320 320 320 319 318 319 320 322 322 324 326 325 322 322 323 322 322 325 329 329 328 326 327 329 328 326 325 321 314 314 314 309 304 303 301 299 298 296 294 293 293 293 293 293 293 294 294 294 294 294 294 294 295 294 294 293 293 292 292 292 291 290 289 288 287 286 286 286 286 286 286 286 286 286 286
326 324 321 322 322 319 318 321 322 321 321 320 320 320 319 318 318 319 320 321 322 325 324 322 325 325 321 320 323 323 323 324 323 322 321 319 320 322 319 317 320 318 311 308 306 302 299 299 297 295 293 293 293 293 292 293 293 293 293 294 293 293 294 294 293 293 293 292 292 292 292 291 290 289 288 287 286 286 286 286 286 286 286 286 286 285
323 324 324 322 322 321 319 321 322 321 321 321 320 319 318 318 318 319 319 319 320 322 322 322 325 324 320 320 322 323 323 321 319 318 317 316 317 319 319 320 322 319 314 312 308 302 299 299 298 295 293 293 293 292 292 292 292 293 293 293 293 293 293 293 292 292 292 292 292 291 291 290 289 288 287 287 286 286 286 286 286 286 285 285 285 285
319 323 326 323 322 322 320 321 322 321 321 322 321 319 318 318 318 318 318 319 319 320 320 320 322 321 320 321 322 325 328 323 318 320 320 318 317 317 318 318 318 317 315 312 307 303 300 299 298 296 293 293 293 292 292 292 292 292 292 292 292 292 292 292 292 292 291 291 291 290 289 289 288 288 287 287 287 286 286 286 286 285 285 285 284 284
318 322 325 323 323 324 321 322 323 320 319 321 321 320 318 318 318 317 318 318 318 320 320 320 321 319 320 322 322 323 327 324 321 321 321 319 317 316 316 316 315 315 315 313 309 305 302 301 300 298 295 293 293 293 293 292 292 292 292 292 292 291 291 291 291 291 291 290 290 289 289 288 288 287 287 287 286 286 286 286 285 285 284 284 284 284
320 321 323 323 324 323 323 325 322 318 319 321 320 319 318 317 317 317 318 318 317 319 320 320 320 318 319 321 321 321 323 323 321 320 319 318 318 317 315 314 313 313 313 312 310 308 306 303 299 297 295 294 294 294 293 293 292 292 292 292 291 291 290 290 290 290 290 290 289 289 288 288 288 287 287 287 286 286 286 285 285 285 284 284 284 284
320 320 321 322 323 323 323 323 320 320 323 323 321 320 319 318 318 318 318 317 316 316 318 318 319 318 318 319 319 319 320 319 318 317 316 316 317 318 317 315 313 311 310 311 310 310 308 303 298 296 296 295 295 294 293 293 292 292 292 292 291 290 290 289 289 289 289 289 289 288 288 288 288 287 287 287 287 286 286 286 285 285 284 284 283 283
318 318 320 321 322 323 322 322 323 325 325 324 327 327 322 319 318 318 318 317 315 316 316 317 317 317 317 317 317 318 318 318 318 315 313 314 316 317 318 316 313 310 309 309 310 310 308 301 297 296 296 296 295 294 293 293 292 292 292 291 291 290 289 289 289 289 289 288 288 288 288 288 287 287 287 287 287 286 286 286 285 285 284 284 283 283
318 317 318 319 321 322 321 323 326 327 323 324 328 325 320 320 320 319 320 319 316 316 316 316 316 315 316 316 316 317 318 318 317 313 312 315 317 315 314 314 312 312 311 310 309 308 305 299 297 297 297 296 296 294 293 292 292 291 291 291 290 289 289 289 288 288 288 288 288 288 287 287 287 287 287 287 286 286 286 286 285 285 285 284 283 283
319 317 316 318 320 320 322 323 323 324 324 324 325 321 317 320 322 320 321 321 317 316 316 315 316 315 316 316 316 315 315 316 315 314 315 318 317 313 312 312 311 310 309 306 303 303 301 300 300 299 298 296 295 294 293 292 291 291 291 290 290 289 289 288 288 288 288 288 288 288 287 287 287 287 287 286 286 286 285 285 285 285 285 284 283 283
318 318 317 319 319 319 322 323 323 325 325 323 324 322 319 321 322 320 321 322 319 318 317 316 316 316 316 316 316 314 313 315 317 315 316 320 317 312 311 310 305 301 300 299 299 299 300 300 299 298 297 296 294 293 293 292 291 291 290 290 289 289 289 288 288 288 288 288 288 288 287 287 287 287 286 286 286 286 286 285 285 285 284 284 283 283
317 317 317 318 320 319 321 323 324 325 324 323 324 322 318 321 321 319 321 322 321 321 320 316 316 317 317 315 316 316 315 317 318 315 316 321 316 308 306 306 302 297 295 297 298 298 298 298 297 296 296 294 293 292 292 292 291 291 290 289 289 289 288 288 288 288 288 288 288 288 287 287 287 287 287 287 287 287 286 286 285 285 284 283 283 283
316 317 317 318 320 320 320 322 323 323 323 325 323 316 313 317 318 321 323 322 322 325 323 319 318 318 317 316 316 317 318 318 317 314 312 310 305 299 299 301 301 297 294 295 297 297 297 297 295 294 294 293 292 292 292 292 291 290 289 289 288 288 288 289 289 289 289 288 288 288 288 287 288 288 288 288 288 287 287 286 285 284 284 283 283 283
316 317 317 318 320 320 321 322 322 321 323 325 319 311 311 315 318 323 324 321 324 325 317 317 320 318 316 317 316 316 317 315 310 307 303 301 301 300 295 292 293 293 292 293 295 295 295 295 294 293 293 292 292 291 291 291 290 289 289 288 288 289 289 289 289 289 288 288 288 288 289 289 289 290 289 289 288 287 286 285 284 284 283 283 283 283
318 318 318 318 319 320 321 322 322 322 322 320 313 307 310 317 322 322 317 313 318 321 313 311 316 315 313 316 316 314 314 310 305 303 301 300 301 301 296 292 292 293 292 292 293 294 294 293 293 292 292 291 292 291 291 291 290 289 289 289 289 289 289 290 290 289 289 290 290 290 290 291 290 290 289 288 287 286 285 284 284 284 283 283 283 282
318 319 319 318 319 320 320 320 323 323 318 312 309 308 311 318 320 316 312 307 308 314 315 312 311 310 309 312 312 308 306 305 302 301 300 298 297 296 294 293 293 292 291 292 292 293 294 292 291 291 290 290 291 291 291 291 290 289 289 289 289 290 290 290 290 290 291 291 291 291 291 290 289 288 287 287 286 285 284 284 283 283 283 283 283 282
319 320 320 319 318 319 321 321 322 320 314 310 313 314 315 316 312 310 314 312 306 307 311 313 311 306 305 309 309 303 301 302 300 299 298 297 296 296 295 292 291 290 290 291 292 292 293 291 290 290 290 290 290 291 291 291 291 289 289 289 290 290 291 291 291 292 291 291 291 290 290 289 288 287 286 286 285 284 284 284 283 283 283 283 282 282
317 316 318 320 318 317 319 317 314 313 309 307 310 311 310 309 306 307 314 315 308 306 307 310 312 307 301 302 303 301 300 300 298 297 298 296 295 295 294 292 290 290 290 291 291 292 291 290 289 289 290 290 290 291 291 292 292 290 290 290 291 292 292 292 292 292 291 290 290 289 289 288 287 286 286 285 285 284 284 284 283 283 283 283 282 282
312 310 313 318 317 315 314 311 307 307 307 304 304 303 303 303 303 306 311 311 309 308 306 307 311 307 299 298 300 301 299 298 297 296 296 295 294 293 292 291 289 289 290 290 290 290 291 290 290 290 289 290 290 291 291 293 294 293 292 292 292 292 292 292 291 290 290 289 289 288 288 287 287 286 286 285 285 285 284 284 284 283 283 283 282 282
310 308 311 315 317 317 317 312 308 308 307 305 305 303 301 301 301 303 307 307 305 305 304 304 307 304 297 297 303 302 298 295 296 296 293 293 294 293 293 293 290 289 289 289 289 290 291 291 290 289 289 289 289 290 291 292 293 293 292 292 292 291 291 291 290 290 289 289 288 288 287 287 287 286 286 285 285 285 284 284 284 284 283 283 282 282
312 310 312 315 315 316 314 308 304 303 303 303 304 304 304 304 303 300 299 299 299 299 298 299 301 300 298 298 301 300 297 294 295 295 293 292 292 292 293 292 288 287 288 289 289 290 290 289 289 288 287 288 288 290 291 291 291 291 291 291 291 291 291 291 290 290 290 289 289 288 288 288 287 287 286 286 285 284 284 284 284 283 283 283 283 282
310 310 312 314 313 313 312 306 302 303 306 305 303 303 303 304 303 298 294 294 296 297 296 296 296 297 299 299 297 298 298 295 293 294 293 292 292 291 290 289 287 287 288 288 289 290 290 289 288 287 287 287 288 289 290 290 290 290 290 290 290 290 290 290 290 290 290 289 289 288 288 287 287 286 286 286 285 284 284 284 283 283 283 283 282 282
309 311 311 311 313 313 313 309 305 309 313 310 305 303 302 301 299 297 295 295 297 297 297 297 296 294 295 294 293 297 301 295 291 292 293 292 291 290 287 286 286 286 287 287 288 289 289 288 289 288 287 287 288 289 289 288 288 288 289 289 289 289 289 290 290 289 289 288 288 287 287 287 286 286 286 285 285 284 283 283 283 282 282 282 281 281
311 313 311 312 314 314 313 309 307 310 314 311 306 303 301 298 297 296 296 296 296 296 296 299 299 297 295 292 290 295 299 295 291 291 293 291 288 287 286 286 286 286 286 287 288 287 287 287 288 288 286 286 287 287 287 286 286 287 287 287 287 287 288 288 289 288 288 288 288 287 287 287 286 286 286 285 284 284 283 283 282 282 281 281 281 280
Wind_Speed
3 3 2 5 7 8 9 8 6 5 6 6 5 4 3 4 4 5 4 6 2 3 6 8 8 11 11 11 11 4 5 7 10 10 10 10 9 9 10 11 12 13 12 11 16 21 23 24 24 22 21 21 21 20 21 22 23 23 23 24 24 24 24 26 26 26 26 25 24 23 23 23 21 21 20 17 16 16 16 17 19 19 20 21 20 20
4 4 8 9 9 8 7 6 6 5 5 6 5 2 2 3 5 7 4 5 1 3 6 5 6 11 12 12 11 3 5 9 12 12 13 13 12 10 11 13 13 10 6 7 13 19 23 25 25 24 23 24 24 23 24 24 24 24 24 25 25 25 25 25 25 26 26 26 25 23 22 23 22 21 19 18 18 18 18 19 20 21 22 22 21 20
3 4 12 9 5 5 2 4 6 4 3 4 3 2 2 3 4 7 5 4 1 3 5 5 4 10 12 11 11 8 8 11 12 13 13 13 12 11 12 13 12 9 7 8 11 17 23 26 26 26 26 27 26 24 26 25 25 26 26 26 26 26 26 25 25 25 24 24 23 23 23 24 23 21 19 19 20 20 20 21 21 21 21 21 21 21
2 6 11 6 8 6 3 4 6 3 1 2 3 3 3 4 2 4 5 4 1 1 2 5 5 8 10 9 10 12 10 10 10 12 13 12 13 14 12 11 11 12 12 10 10 12 19 23 25 28 28 29 28 25 27 28 27 27 27 27 27 27 27 26 25 25 24 24 24 24 24 24 22 21 21 22 23 23 22 22 21 21 21 21 22 22
6 6 2 6 8 8 5 4 6 5 3 4 5 6 5 5 6 5 4 4 3 3 3 4 6 7 7 7 10 8 4 7 10 9 12 13 13 13 10 10 12 13 13 12 11 11 16 22 26 29 29 29 29 28 30 30 29 29 29 28 28 28 28 27 27 27 26 25 25 25 24 22 21 22 24 25 25 24 24 23 22 22 22 22 22 23
8 5 4 7 5 6 7 4 5 7 4 4 5 9 10 8 7 5 3 5 4 5 4 3 4 6 5 5 9 6 4 7 7 7 12 14 12 10 10 12 11 10 10 11 12 13 17 22 25 26 28 29 30 30 31 31 30 29 29 29 29 29 29 28 28 28 27 27 27 26 25 23 23 24 24 27 27 25 25 24 23 22 22 23 23 24
5 3 5 7 5 6 6 4 6 7 5 3 5 9 11 8 5 4 2 2 1 4 3 2 1 6 7 6 8 7 7 10 8 8 12 12 10 8 9 11 9 9 9 9 11 13 16 21 23 25 29 32 32 31 30 30 29 29 29 30 30 30 30 30 30 29 29 28 27 26 25 24 26 27 25 26 27 26 25 24 23 23 23 23 24 24
4 4 4 6 5 6 5 4 6 8 8 3 5 5 7 7 6 5 5 3 3 3 4 2 3 4 8 7 7 6 7 11 11 13 13 12 11 10 10 10 9 10 10 9 11 12 16 21 26 29 33 35 33 30 29 30 29 30 30 31 31 31 31 31 31 30 29 27 27 26 25 26 29 30 28 27 27 26 24 24 24 24 24 24 25 25
4 7 8 8 4 4 6 5 7 10 6 5 3 6 6 6 5 4 5 2 1 3 5 2 3 3 8 6 3 2 4 9 13 15 15 12 12 10 10 10 9 9 9 10 11 12 16 23 28 30 30 31 31 29 30 31 30 30 31 31 32 32 32 32 31 29 28 27 28 28 28 29 29 28 28 28 27 26 25 24 25 25 25 26 26 27
1 5 7 8 6 6 5 2 7 11 5 4 5 7 6 6 5 5 4 3 3 2 6 6 5 3 7 5 1 1 2 8 12 12 11 10 10 9 9 9 8 7 7 9 9 11 17 22 25 25 24 27 29 29 30 31 29 30 31 32 33 33 32 32 31 29 28 29 30 30 31 32 30 28 28 28 27 27 27 27 27 27 28 29 29 30
2 1 2 4 4 5 4 3 2 6 6 6 6 6 6 6 5 4 3 4 2 4 8 8 9 6 6 4 4 3 4 7 8 8 8 8 8 8 7 6 6 6 6 7 7 9 14 18 20 21 23 26 28 28 30 30 30 32 33 33 34 33 33 31 30 30 29 31 32 32 33 32 29 28 29 30 30 30 30 30 30 30 31 32 32 32
4 1 1 2 2 4 6 5 3 2 4 5 4 5 4 4 4 4 4 4 1 6 5 4 5 7 6 6 4 5 6 6 7 7 8 8 8 8 6 5 5 5 5 6 6 7 10 13 18 22 24 26 28 29 31 31 32 33 34 34 34 33 33 32 31 31 32 33 33 33 32 30 29 29 31 33 33 33 33 34 34 34 34 34 34 34
2 4 3 3 1 4 6 4 4 4 2 4 4 6 4 2 3 3 3 0 3 6 3 1 2 4 8 8 7 11 13 11 9 8 8 9 9 8 6 5 5 5 5 6 6 7 8 11 16 22 24 27 30 32 33 33 33 33 34 34 34 34 34 33 33 33 34 34 34 33 31 29 30 32 34 35 35 35 36 38 39 39 39 38 38 37
3 5 3 0 2 3 7 7 2 1 4 5 5 6 5 2 0 3 3 2 4 5 3 2 2 3 6 5 10 17 17 13 8 7 9 9 9 9 8 7 5 5 6 6 7 8 8 11 16 21 25 27 30 33 34 34 34 33 33 34 35 35 34 34 35 35 35 34 33 32 30 30 31 33 36 37 37 38 39 40 41 41 41 41 39 38
5 6 5 7 3 6 10 8 5 6 5 5 4 5 5 5 4 4 4 3 4 3 3 2 2 4 3 3 8 11 11 10 7 7 8 8 8 7 7 8 6 6 6 6 7 8 9 12 18 21 24 26 29 32 33 34 34 34 34 35 35 35 35 36 36 36 35 34 32 31 31 31 33 34 36 37 38 40 41 41 41 41 41 40 39 37
5 7 6 3 1 9 11 5 5 7 3 2 2 4 4 6 5 2 3 5 3 2 4 3 4 5 4 6 9 7 9 9 7 7 8 8 7 4 6 8 6 6 6 6 7 8 8 13 18 20 23 25 27 30 32 34 36 36 36 36 35 36 36 37 36 36 35 34 33 32 32 33 34 35 37 38 40 42 42 42 42 42 41 39 38 37
3 5 5 2 2 4 6 3 3 4 3 2 3 4 4 4 6 2 2 1 3 2 4 3 5 5 3 8 10 8 11 11 8 8 9 9 6 4 8 8 6 6 6 6 7 7 8 12 16 20 22 25 27 31 33 36 37 38 37 37 36 36 37 37 37 36 35 34 34 34 34 34 35 36 38 40 43 44 43 43 42 41 40 39 38 37
5 3 4 1 1 3 1 3 4 3 4 6 4 6 2 2 3 2 1 3 3 3 5 2 6 5 2 6 5 1 8 12 11 11 11 9 7 7 10 9 6 7 7 7 7 6 7 11 16 20 23 26 30 32 35 36 37 37 37 38 38 37 37 38 38 37 37 36 36 35 35 35 36 38 40 42 44 45 45 43 42 41 41 39 38 37
5 2 4 1 2 3 3 3 2 5 2 5 4 4 4 2 1 2 2 1 0 3 5 3 4 4 6 6 3 2 7 10 11 10 8 9 9 8 10 10 6 6 6 6 6 6 7 11 17 21 23 26 29 30 32 33 34 35 35 36 37 37 38 38 38 38 37 37 37 36 36 36 37 40 42 44 46 46 46 44 43 42 41 40 39 37
3 4 3 1 1 1 3 1 4 2 2 3 2 2 2 2 4 3 3 3 3 3 4 4 3 4 7 7 7 10 11 11 9 6 5 9 9 8 9 8 5 5 6 6 7 7 7 12 18 22 24 26 28 29 30 31 33 34 34 34 36 37 37 38 39 39 38 38 38 37 37 38 39 42 44 45 47 47 46 45 44 43 42 41 39 38
2 4 4 2 2 1 2 4 8 10 7 4 4 4 3 1 2 1 1 3 4 3 2 3 6 7 5 5 10 13 12 11 9 6 7 9 8 8 9 7 5 5 7 7 7 7 8 11 17 21 24 25 27 28 29 31 33 34 35 35 35 36 37 38 39 39 39 39 38 38 39 40 41 43 44 45 46 46 45 45 44 43 42 41 40 39
3 4 4 2 1 4 5 4 5 9 8 7 7 8 9 6 4 3 3 2 2 2 4 3 8 10 4 5 8 9 9 9 8 7 7 7 8 9 8 6 6 7 7 8 8 7 7 11 16 20 22 24 25 27 29 31 33 34 35 36 36 36 37 38 39 39 39 39 39 39 39 40 42 43 44 44 45 45 45 45 44 43 43 42 41 39
4 3 4 3 4 6 5 3 2 4 3 2 3 5 7 6 6 6 5 4 2 2 2 3 5 9 2 4 6 6 6 6 6 7 7 7 8 8 7 5 5 6 6 7 8 7 8 12 17 20 22 24 26 28 30 32 33 35 35 36 35 36 37 37 39 39 39 39 39 39 39 40 41 43 43 44 45 45 45 45 45 44 43 42 41 40
3 3 3 1 3 3 4 5 2 1 2 1 3 3 6 7 7 6 4 4 4 5 3 3 6 8 1 0 3 3 4 3 3 7 7 7 7 7 7 6 5 5 5 5 6 6 8 12 15 17 20 22 25 27 30 32 33 34 34 35 36 36 36 37 38 39 39 39 38 38 38 40 41 43 44 44 45 45 45 45 45 44 43 42 41 40
4 5 4 2 1 3 4 4 3 2 3 4 3 4 7 11 8 3 1 3 2 7 9 5 9 7 1 4 3 3 4 5 6 7 6 6 7 7 7 7 5 4 4 5 6 6 8 10 12 15 19 22 25 27 30 31 32 33 34 35 35 35 35 36 38 38 38 38 38 38 39 40 41 43 44 44 45 45 46 46 45 45 44 43 42 41
7 6 7 6 7 7 7 6 5 4 3 2 4 7 9 11 12 7 2 2 6 7 9 9 12 6 2 5 4 3 4 5 7 7 6 6 7 7 8 7 5 4 5 7 7 7 8 9 10 15 19 22 25 27 29 31 32 33 33 34 35 35 36 37 38 38 38 38 38 39 40 41 42 43 44 44 45 45 46 46 45 45 44 43 42 41
4 5 10 12 12 13 13 9 5 9 7 7 10 13 12 12 13 10 5 7 7 3 5 13 15 10 7 4 4 5 5 6 7 6 6 6 7 8 9 8 5 5 6 6 7 7 8 9 11 14 19 22 24 26 29 31 32 33 32 33 34 35 37 38 38 39 39 39 39 40 41 42 42 43 44 44 44 44 44 44 44 44 44 43 43 42
3 4 11 16 17 20 20 12 9 14 14 16 16 15 15 15 13 12 13 12 6 4 10 14 10 13 17 9 7 9 7 7 8 7 8 8 8 8 8 6 6 6 5 5 7 9 10 11 11 13 18 22 24 25 28 29 31 33 33 34 36 37 38 39 39 39 39 39 39 40 41 41 41 42 42 42 42 42 43 43 43 43 43 43 43 43
3 5 11 15 18 22 21 12 12 14 14 15 17 18 18 18 17 19 22 17 9 8 18 12 10 14 21 11 11 12 9 10 11 10 10 8 8 9 7 6 7 7 6 7 9 10 11 12 11 12 17 21 23 25 27 28 30 32 34 36 37 39 40 40 39 39 39 39 41 41 41 40 40 41 41 41 41 41 42 43 43 43 43 44 44 43
3 5 9 13 15 20 20 11 12 13 11 10 15 18 19 20 23 25 25 20 14 15 21 15 9 17 18 10 10 10 9 11 10 7 8 7 9 10 9 9 9 8 8 10 11 12 12 12 11 11 15 19 24 27 28 30 32 33 34 35 36 38 39 39 39 39 40 40 41 40 38 38 39 39 40 41 41 42 42 43 43 43 44 44 43 43
4 5 5 7 8 14 18 11 10 12 10 9 11 13 17 21 24 24 20 16 13 15 20 18 15 19 13 5 7 8 7 8 7 7 9 10 10 11 10 10 10 10 10 11 11 11 10 10 9 10 14 21 27 29 30 31 32 32 33 34 37 39 39 39 40 40 40 40 38 37 36 37 37 37 39 41 41 41 41 42 42 43 43 43 42 42
5 4 1 3 5 12 16 11 9 8 6 6 9 13 20 22 19 16 13 13 13 16 19 16 15 18 9 4 5 7 6 8 10 10 11 10 9 11 11 12 11 11 12 12 12 11 10 10 11 12 16 23 27 29 31 32 30 30 33 35 36 37 37 38 39 39 38 37 36 35 35 36 36 37 38 39 40 40 40 40 41 41 42 42 42 42
5 5 3 4 7 12 11 7 8 6 2 6 13 19 23 19 11 8 11 16 18 16 15 13 15 19 12 6 7 7 7 10 12 11 12 12 11 10 10 11 12 12 13 12 11 10 10 11 12 16 21 24 27 31 33 32 31 32 33 32 32 33 35 37 37 36 35 34 34 34 34 35 36 36 37 37 37 37 37 38 39 40 41 42 41 40
5 8 6 5 7 10 6 6 7 5 8 11 12 15 19 16 13 13 16 19 17 14 13 14 17 19 15 10 11 11 11 12 13 13 11 7 7 8 9 11 13 13 12 10 10 10 10 10 13 19 23 24 26 28 29 29 30 29 28 28 29 31 33 34 34 33 32 32 32 33 33 33 34 35 35 35 35 36 36 37 38 39 39 39 38 39
5 7 5 3 4 6 4 6 4 9 12 9 4 4 10 14 17 19 19 17 15 15 16 18 21 22 19 15 12 12 12 11 11 12 6 2 5 8 10 12 12 10 10 10 10 10 10 11 13 17 20 21 23 24 25 27 28 26 25 27 28 29 30 30 30 29 29 30 30 31 31 32 33 33 33 33 34 35 35 36 37 37 37 37 38 39
8 6 4 2 3 3 3 6 9 7 3 5 5 3 3 5 10 12 12 14 16 17 18 21 24 24 21 18 15 12 9 6 9 8 5 6 10 10 9 11 11 10 11 10 10 11 12 12 14 16 18 19 22 24 26 27 26 25 25 26 27 27 27 28 27 27 28 28 29 29 30 31 31 31 32 33 33 34 35 35 36 36 36 37 38 39
10 8 5 4 5 5 5 8 8 5 6 8 8 5 5 6 10 11 9 13 17 18 19 19 21 22 19 17 17 12 3 5 10 9 7 10 13 10 11 13 11 10 10 9 9 12 13 14 16 17 18 20 22 24 25 25 25 25 25 25 26 27 26 26 27 28 28 28 28 29 30 30 31 31 31 31 32 33 34 34 34 35 35 37 38 39
9 9 8 7 6 6 6 7 5 4 9 13 8 5 8 10 12 13 9 10 13 16 18 17 18 20 18 17 16 7 3 4 13 11 5 7 8 7 8 11 8 7 8 7 8 9 9 11 13 15 18 20 21 23 25 26 27 27 27 27 27 27 27 27 28 29 29 29 29 30 30 30 30 30 30 30 31 32 33 33 34 35 36 38 39 40
11 8 8 7 5 5 7 7 6 6 10 11 7 6 8 10 11 11 6 10 10 10 13 14 17 19 18 16 11 3 4 5 13 9 3 3 5 5 5 7 5 4 5 5 6 6 7 9 11 14 18 20 21 23 26 28 29 29 27 27 28 28 28 29 30 29 29 29 28 28 28 28 28 28 29 30 31 32 33 33 34 35 36 37 38 38
13 9 8 8 8 8 8 8 5 5 7 7 6 5 5 8 12 11 6 9 6 7 11 15 18 18 16 11 5 5 6 9 10 6 3 4 4 3 3 3 3 2 2 2 4 7 11 14 16 18 19 21 23 25 27 28 28 27 26 25 27 28 29 29 29 28 28 27 26 26 26 26 26 27 28 29 31 32 32 33 34 35 35 36 36 36
9 8 8 9 10 11 12 9 5 4 6 6 6 6 7 8 9 8 9 7 5 7 7 12 14 12 8 7 6 6 9 7 4 2 2 2 2 3 4 3 4 5 5 7 9 12 14 15 16 18 19 21 24 25 27 28 26 24 23 24 25 27 27 27 26 26 26 25 24 24 24 24 24 26 27 29 30 31 32 33 34 34 34 34 34 34
8 6 6 9 10 9 10 9 6 6 6 6 6 4 6 7 6 8 6 1 4 7 5 5 8 6 5 7 7 7 5 3 3 1 2 3 2 2 4 4 6 8 8 10 11 14 15 15 15 17 18 20 24 25 27 28 25 23 23 24 24 24 23 23 23 24 23 22 20 20 21 22 23 25 26 28 29 30 31 31 32 32 32 31 32 32
9 7 6 7 8 6 6 8 7 7 5 11 12 4 4 6 6 4 2 2 1 5 4 4 5 5 5 6 6 5 2 3 4 3 4 4 3 4 4 5 6 7 8 10 11 13 17 16 15 16 17 19 23 25 26 26 24 23 24 22 20 20 20 19 19 18 17 17 17 18 19 21 22 24 25 27 28 29 29 29 29 29 29 29 30 30
7 8 7 6 7 6 7 8 6 4 5 11 12 6 6 6 4 4 5 3 1 3 4 4 4 5 6 6 5 3 2 2 2 3 3 4 3 4 4 5 6 7 8 10 11 14 17 18 17 16 16 17 20 22 24 24 24 23 21 17 16 16 16 15 14 13 13 15 16 17 19 20 21 23 24 26 26 27 27 27 27 27 27 28 28 28
5 4 4 4 5 5 4 4 2 1 4 5 3 1 2 3 2 3 5 5 3 4 4 4 4 4 5 5 5 4 3 4 4 4 4 4 4 4 4 5 6 7 9 11 12 14 18 20 20 20 17 16 18 20 20 20 20 20 17 14 12 12 11 11 12 12 13 14 15 17 18 19 20 21 22 23 24 25 26 26 25 25 26 26 27 27
1 1 1 2 2 2 1 1 1 1 2 3 1 2 1 2 1 3 4 4 4 4 4 4 4 5 6 6 6 4 4 5 5 4 4 4 4 4 5 5 7 8 10 12 13 15 18 21 21 20 19 16 15 16 15 14 13 14 14 12 10 9 9 10 11 12 13 14 15 16 17 17 18 19 20 21 22 23 23 24 24 25 25 26 26 27
2 2 1 1 3 3 3 3 3 2 3 3 0 1 1 1 1 1 2 3 4 4 4 4 5 6 6 6 6 6 5 6 6 5 4 4 4 4 4 5 6 8 9 11 11 14 17 19 18 18 18 16 13 13 12 10 9 10 11 10 9 9 9 10 12 13 13 14 15 15 16 17 18 18 19 20 20 21 22 22 23 23 24 25 25 26
2 3 2 1 3 4 2 2 2 1 3 3 2 2 3 3 2 2 1 1 3 4 3 3 4 6 6 5 5 7 6 5 6 6 5 4 4 4 4 5 6 8 9 10 12 13 15 17 17 17 17 16 15 14 13 12 11 12 11 10 10 11 11 12 12 13 13 14 14 15 15 15 16 16 17 18 18 19 20 21 21 22 23 23 24 24
2 3 3 2 1 1 2 2 2 2 5 5 5 5 4 4 4 2 2 3 5 5 4 3 2 3 5 5 5 7 7 5 5 6 6 5 5 5 4 5 8 10 10 11 12 14 16 18 19 19 19 18 17 16 16 16 15 14 13 11 11 11 11 12 12 12 12 13 13 13 14 14 14 14 14 15 15 16 17 17 18 19 20 20 20 21
4 4 3 3 2 4 5 5 6 3 2 5 8 8 7 5 6 5 4 4 5 5 6 6 4 2 2 4 5 7 7 5 5 5 6 5 5 5 7 8 10 10 11 12 12 13 15 18 19 21 20 19 18 18 18 17 16 15 13 13 12 10 9 11 12 12 12 13 12 12 12 11 11 11 10 10 11 13 13 13 14 15 16 17 17 17
5 6 6 6 5 5 5 8 8 5 1 3 7 9 8 6 6 7 6 5 5 5 6 7 6 4 3 2 2 5 7 6 6 6 6 4 5 8 10 11 12 12 12 13 14 15 16 17 18 21 20 18 17 18 17 16 15 14 13 13 12 10 9 9 10 10 10 9 8 8 8 7 7 7 7 8 8 9 10 10 10 11 12 13 14 14
Wind_Direction
94 111 183 208 208 203 204 197 176 159 125 115 130 132 173 193 267 261 253 290 240 159 248 233 233 257 258 263 265 237 177 220 246 251 250 244 235 228 225 229 227 228 236 224 212 212 210 209 209 209 209 205 203 206 205 202 201 199 198 195 190 189 191 191 183 178 182 181 175 170 169 168 166 169 173 178 186 186 187 191 190 192 189 184 182 183
79 148 226 225 205 199 205 185 135 113 99 91 122 163 261 207 251 260 247 305 323 169 264 263 247 262 259 261 267 222 176 227 234 236 244 241 236 231 227 231 229 228 229 199 203 207 205 206 206 206 206 203 201 204 205 204 203 199 198 199 193 189 188 188 186 180 177 178 177 175 173 171 166 166 170 175 180 181 183 184 183 184 182 179 178 180
54 224 241 228 165 130 113 137 135 132 110 90 110 149 261 249 268 277 278 322 356 175 265 297 276 267 263 261 264 239 217 235 232 228 240 240 237 234 227 231 229 223 214 199 201 199 200 202 201 203 205 204 203 203 204 205 204 200 198 198 195 193 188 185 186 183 179 178 180 181 178 172 167 165 171 177 176 178 179 178 178 178 177 177 176 176
156 250 248 200 139 132 101 105 125 126 149 160 151 158 239 254 259 276 290 326 350 188 273 308 300 275 269 265 260 248 234 246 246 236 243 242 240 239 231 226 222 219 214 207 203 196 197 199 198 201 204 204 203 203 205 204 203 201 198 196 194 194 191 187 188 189 186 182 179 179 176 173 171 168 171 172 169 172 174 173 175 177 176 177 176 174
213 252 244 135 150 163 145 113 131 149 239 239 191 185 218 233 218 231 284 330 342 348 3 339 310 281 270 263 258 264 273 268 256 245 252 250 243 246 246 236 222 218 215 204 201 195 193 197 199 200 201 201 201 202 205 203 201 200 198 196 193 192 191 189 190 192 191 184 178 173 168 166 164 162 165 165 162 166 170 170 172 175 175 176 175 172
246 246 111 117 148 158 150 165 177 171 206 273 224 200 212 220 224 237 333 11 1 329 348 14 306 281 291 272 258 282 318 278 258 239 250 253 249 243 246 244 229 220 217 205 199 195 194 198 199 199 199 199 200 203 203 202 201 199 198 196 192 191 190 189 190 193 192 186 180 174 168 163 158 156 162 164 163 165 168 169 171 173 174 175 174 172
246 236 114 121 138 146 160 212 223 178 151 271 246 206 208 203 202 207 150 61 298 262 294 59 207 273 295 270 250 261 271 268 267 253 251 256 256 240 236 243 233 219 214 203 197 193 195 197 194 197 200 199 201 201 200 201 200 199 198 196 192 191 192 191 189 189 188 184 182 182 180 178 171 166 166 167 166 166 170 171 171 173 175 175 175 174
198 201 124 122 118 129 163 224 221 166 137 239 253 179 176 177 187 191 159 177 234 261 312 41 129 266 283 262 249 252 261 274 275 265 261 259 256 250 243 241 232 219 207 197 198 194 196 197 195 198 200 200 200 197 196 199 200 198 198 197 193 192 194 193 190 188 188 188 188 188 187 184 179 175 172 170 167 167 172 174 174 176 177 177 176 174
173 184 183 170 155 160 191 214 186 154 150 247 220 126 136 150 158 139 124 159 351 4 302 286 127 253 271 262 288 311 255 268 267 261 262 260 257 257 252 245 236 225 208 198 200 198 197 199 200 201 199 198 197 194 195 197 198 198 197 196 194 193 193 194 195 193 192 195 194 191 188 181 177 177 175 173 171 171 175 178 177 177 176 176 173 171
199 200 193 169 172 200 205 222 178 164 179 215 136 96 78 80 82 81 99 107 52 356 255 223 163 235 270 242 238 9 231 249 259 260 262 264 263 259 255 252 240 225 213 205 204 200 201 202 202 200 196 195 194 193 195 196 195 196 195 193 193 195 195 196 198 196 194 195 192 189 188 182 178 178 175 174 174 174 177 177 175 175 174 172 170 167
289 289 194 161 178 188 139 75 176 169 157 142 111 68 48 37 38 47 54 74 66 276 254 218 184 197 273 258 197 209 214 223 243 264 274 278 277 264 257 257 240 220 211 206 203 196 196 199 197 194 193 193 192 192 194 195 194 194 194 192 192 194 196 197 198 197 197 197 192 188 189 187 185 184 180 178 176 174 175 174 172 171 170 169 167 165
330 339 250 232 174 130 100 71 23 61 115 114 95 81 67 354 6 20 360 45 159 252 263 247 179 176 236 259 232 251 262 240 228 242 263 273 278 272 270 268 245 226 210 198 193 184 178 183 187 189 191 190 190 191 192 194 194 193 194 192 191 192 194 197 201 200 199 197 193 191 192 194 197 196 191 185 180 176 175 172 169 167 166 164 164 162
288 235 267 314 209 146 115 92 32 18 77 99 105 109 101 331 352 344 308 61 228 253 259 244 131 185 239 254 262 266 266 254 230 222 237 253 268 277 282 272 245 220 209 197 190 185 180 181 185 187 188 188 189 191 192 193 193 192 193 193 192 192 194 198 200 199 198 196 195 196 199 203 204 201 196 190 184 179 175 171 168 166 164 163 162 161
264 289 294 205 251 187 157 157 156 195 180 159 148 140 139 149 190 266 269 272 262 267 263 205 179 248 267 265 249 247 251 254 245 232 234 240 254 270 285 284 266 227 209 203 195 191 192 191 190 189 189 189 190 191 191 192 192 192 192 194 195 195 196 198 198 198 198 198 199 201 204 206 203 198 195 191 187 181 175 172 170 167 166 165 163 162
214 278 216 180 206 189 184 189 164 139 161 185 155 138 158 162 168 214 219 227 253 282 290 248 192 202 212 256 250 244 260 274 267 257 254 252 250 260 280 283 273 242 216 207 203 201 201 195 191 191 191 191 192 191 191 191 191 192 193 194 195 196 197 198 198 199 200 201 202 204 205 204 201 198 195 191 187 181 177 174 172 171 170 168 166 164
200 264 240 205 196 173 183 193 117 109 133 227 115 118 185 185 165 194 203 181 189 306 293 234 221 217 209 271 274 261 273 277 272 278 273 265 264 275 276 264 252 241 222 209 210 207 203 196 192 192 192 193 193 192 191 192 191 192 194 195 197 199 199 199 199 200 201 202 203 205 204 202 200 197 194 189 185 181 178 176 175 174 172 170 168 166
172 277 282 350 10 180 186 175 123 137 172 159 139 176 207 173 144 155 276 61 79 275 265 202 239 284 312 282 272 256 263 270 277 278 265 261 274 293 276 258 235 231 221 211 213 207 196 193 193 194 193 193 193 193 194 194 194 194 194 195 197 199 200 201 201 202 202 203 203 203 203 201 199 197 194 189 184 181 180 179 178 176 174 172 171 170
162 251 298 96 186 268 270 114 62 24 125 129 182 202 159 77 100 117 255 354 40 255 271 227 235 271 281 270 297 278 251 262 265 261 263 275 280 268 268 261 231 218 218 214 210 202 193 191 193 195 196 196 196 196 196 196 196 196 196 196 197 198 199 201 202 202 204 203 202 201 201 201 201 198 194 189 184 182 181 181 180 178 176 175 174 174
155 206 306 52 186 290 2 100 64 356 68 131 183 182 119 127 201 117 163 231 198 251 284 278 246 243 208 223 280 222 223 241 251 253 262 270 264 255 265 265 237 207 212 215 205 199 196 193 194 194 197 199 199 199 199 197 197 196 197 198 199 201 202 202 203 203 203 203 202 202 202 202 201 198 193 188 185 184 184 183 182 180 179 178 178 177
143 192 262 329 251 301 12 144 185 216 37 65 104 133 105 149 171 159 165 168 170 230 280 300 291 245 215 200 200 213 218 215 221 230 239 250 250 246 257 262 239 205 208 211 204 205 200 194 196 196 197 199 199 201 200 198 198 197 198 199 199 203 204 204 203 202 201 202 202 203 202 202 201 197 192 189 187 186 186 185 184 183 182 181 181 181
120 204 228 312 334 173 196 218 192 180 168 151 157 170 182 125 107 164 198 134 141 175 225 288 288 259 229 192 194 208 217 211 203 201 222 244 248 245 252 252 230 212 213 210 204 205 200 194 196 197 199 200 199 200 200 199 199 199 200 200 199 201 202 202 202 201 201 202 202 202 202 201 199 196 192 190 189 189 188 187 186 186 185 184 184 184
181 199 179 160 216 202 219 249 206 191 188 180 185 191 187 169 138 166 239 213 141 177 184 206 275 267 230 185 198 205 210 210 207 204 218 245 248 249 258 242 214 210 208 208 206 203 194 190 192 194 197 198 197 199 199 200 201 201 201 201 200 201 201 201 200 200 201 201 201 203 203 201 199 196 193 192 191 191 191 190 189 189 188 187 186 186
151 114 141 176 218 218 238 284 219 202 192 155 207 203 178 170 159 165 214 217 160 230 190 125 275 276 244 173 200 213 217 211 206 206 215 246 251 257 276 264 232 226 211 201 201 197 189 188 191 194 195 196 197 198 199 200 202 203 203 202 201 201 201 201 201 201 201 201 201 202 202 201 199 197 195 194 194 193 193 192 191 191 191 190 189 189
116 118 164 235 306 306 307 328 1 118 123 175 236 182 162 193 192 172 194 180 167 218 175 113 264 268 316 288 230 241 260 268 247 219 216 246 265 273 279 272 251 239 221 201 197 189 184 186 189 193 196 197 198 199 200 201 203 204 204 204 203 203 201 201 201 201 201 202 201 201 202 202 200 199 198 197 197 196 195 194 194 193 193 192 191 191
182 182 163 148 290 326 333 321 303 240 193 205 217 184 191 201 192 175 84 98 214 217 167 165 253 246 255 314 327 9 317 289 269 243 219 233 263 275 281 279 257 230 210 197 194 185 183 187 192 196 198 199 200 200 201 202 203 204 205 205 204 203 202 202 202 202 202 202 201 201 202 202 202 201 200 200 199 198 197 197 196 195 195 194 194 193
179 185 170 172 207 225 224 226 227 202 172 188 205 196 203 198 189 199 198 179 234 215 159 194 242 245 350 318 316 350 324 285 271 261 236 230 251 265 273 276 263 226 208 201 194 190 193 198 201 201 201 202 203 202 202 202 203 204 206 206 205 204 202 203 203 203 203 202 202 202 202 203 204 203 202 202 202 201 200 199 198 197 196 196 196 195
150 188 189 190 207 222 230 228 155 128 147 202 209 197 200 202 194 197 207 215 218 169 182 222 233 252 276 272 268 281 269 256 266 276 268 255 253 256 258 262 256 229 219 207 194 197 202 206 208 205 204 205 205 205 204 204 203 204 204 205 205 204 203 203 204 203 203 203 203 203 204 205 205 205 204 204 204 203 202 201 200 199 198 198 198 198
116 200 201 204 215 226 234 226 157 148 175 201 203 196 199 201 190 195 216 217 165 136 243 235 205 244 257 231 224 252 246 247 260 257 256 255 249 250 252 253 247 236 227 209 204 209 209 211 211 206 205 205 205 207 208 207 206 204 204 204 204 204 204 204 203 202 202 203 203 205 206 206 206 206 206 205 205 204 204 203 203 202 201 201 201 201
153 214 208 211 222 231 235 217 172 177 189 196 199 196 197 195 190 202 218 216 165 187 247 239 161 222 249 231 216 230 223 232 241 236 241 250 252 254 250 246 247 241 226 216 218 218 213 215 213 205 205 203 202 205 207 207 208 205 204 205 203 203 204 203 202 201 201 202 204 206 206 205 206 206 206 205 205 205 205 205 204 204 203 203 203 204
181 217 209 211 223 235 237 211 176 190 194 194 202 198 194 195 199 207 216 216 202 217 247 250 214 237 252 234 217 218 208 226 245 253 253 246 243 247 244 244 248 242 228 224 226 223 218 218 213 201 201 201 203 204 204 205 207 205 204 203 202 203 202 201 200 200 201 203 205 205 205 204 205 204 205 205 206 207 206 206 205 205 205 206 206 205
203 216 203 198 216 239 240 216 183 194 194 196 209 206 202 203 206 212 215 214 215 232 248 255 257 259 257 210 213 220 210 235 257 258 249 239 234 240 241 242 245 242 238 234 231 229 222 218 210 197 200 205 206 205 204 206 206 205 204 203 202 202 201 199 200 200 201 203 203 203 202 203 203 203 204 205 206 207 207 206 206 206 207 208 207 207
193 214 125 133 202 241 243 221 192 194 197 214 223 214 212 212 209 208 210 206 205 221 239 247 254 257 247 158 205 222 211 237 247 239 243 245 235 232 235 238 239 239 239 237 234 230 221 214 208 203 207 209 207 205 206 206 204 203 205 204 202 200 198 198 199 199 201 202 201 200 201 201 202 202 204 205 206 207 207 207 208 208 209 209 209 209
173 196 187 164 211 243 247 203 163 152 167 237 232 221 217 214 200 188 208 217 210 209 224 232 239 249 247 217 228 230 216 233 242 237 240 246 241 232 232 236 238 238 239 238 237 230 222 218 213 212 214 212 208 208 208 204 201 203 205 203 201 198 196 197 198 198 199 199 198 199 200 201 201 202 204 205 206 207 208 209 210 211 212 212 211 210
180 200 201 182 215 239 227 132 126 168 209 228 231 224 219 207 187 194 215 220 211 208 222 234 243 252 254 242 237 239 235 236 242 241 242 253 257 247 241 239 239 240 242 242 241 235 228 224 220 220 220 216 212 210 207 204 203 204 202 199 198 197 195 195 196 196 197 196 197 198 199 200 202 203 204 206 207 208 209 211 213 214 214 214 213 212
180 202 203 181 214 229 169 122 170 215 220 235 265 240 219 200 189 203 222 224 212 212 225 239 248 252 254 252 246 244 243 245 252 253 255 282 251 238 243 247 243 243 246 244 242 239 234 227 222 220 219 216 211 206 202 201 201 198 196 195 195 194 194 194 193 194 194 194 196 198 199 201 202 203 204 206 208 210 212 213 215 216 216 216 216 215
180 191 199 187 191 193 150 183 219 234 260 285 291 263 214 178 173 197 232 237 222 216 220 231 242 248 253 258 257 251 248 267 278 263 215 218 238 233 238 251 248 241 240 235 234 237 235 231 225 220 215 208 203 198 196 195 192 187 187 189 189 191 192 191 190 191 193 194 196 198 200 201 202 203 205 207 209 211 213 214 216 217 218 218 218 218
187 186 196 206 202 200 201 214 235 301 316 272 253 219 170 152 158 176 218 241 229 219 218 226 238 247 252 255 257 260 289 331 297 272 201 211 237 233 232 247 252 248 247 243 241 245 245 239 231 221 210 198 192 191 187 184 182 179 178 180 183 186 188 189 191 193 194 195 197 200 202 203 204 205 206 207 209 212 214 217 218 220 220 220 219 219
193 188 191 203 206 204 214 227 236 254 251 246 237 187 168 171 168 167 192 244 241 220 212 217 231 241 245 249 252 257 36 327 281 274 223 219 249 251 246 260 272 275 277 269 250 245 239 226 215 204 193 182 179 181 180 177 177 175 173 175 179 181 184 190 194 195 195 197 200 202 204 205 206 206 207 210 213 216 219 220 222 223 223 222 221 221
208 205 199 205 208 196 208 228 221 217 242 247 226 180 175 172 152 142 182 251 247 204 189 199 220 233 237 242 239 173 108 256 264 270 263 261 291 303 277 283 309 313 295 269 235 212 190 182 174 170 171 167 166 173 176 176 175 172 171 174 176 179 184 192 196 196 197 199 201 203 205 206 208 210 212 216 220 222 223 224 224 225 224 224 224 225
212 214 211 214 218 208 211 227 227 227 250 242 205 190 182 154 131 130 195 248 229 172 168 183 208 228 230 225 204 148 181 232 252 266 275 271 290 317 312 312 341 4 43 104 161 163 155 154 151 151 157 161 163 169 172 172 171 170 171 172 175 180 188 194 197 198 198 200 201 203 206 209 212 215 219 223 226 227 227 227 226 225 225 226 227 228
203 207 209 216 222 216 216 228 240 244 241 213 186 182 160 136 134 166 214 232 180 169 182 186 200 218 210 182 169 185 211 232 248 259 294 301 295 342 6 37 71 78 91 109 127 136 137 142 147 149 154 160 163 165 168 168 166 166 169 172 178 186 192 196 197 198 198 200 202 205 210 215 220 225 228 230 231 230 229 228 227 227 227 228 228 229
191 198 203 210 217 218 220 225 235 249 232 164 142 166 161 151 178 204 216 222 146 165 191 199 199 196 169 171 189 209 236 321 13 47 26 29 37 11 8 39 71 75 90 107 120 128 127 125 131 137 145 156 160 163 167 166 162 163 169 177 184 190 193 195 196 197 197 200 204 211 218 225 229 230 231 231 230 228 228 228 228 229 230 230 230 231
182 184 197 203 204 208 219 216 221 245 216 136 123 137 219 200 199 188 143 47 120 156 155 186 206 190 172 191 212 222 255 10 32 55 48 43 48 40 29 41 61 69 87 99 111 126 126 119 119 127 137 150 158 163 167 165 162 165 172 180 186 189 190 191 192 193 196 201 209 217 224 228 230 230 230 229 228 227 228 228 228 229 230 231 231 232
185 187 200 201 195 196 207 213 210 208 176 148 140 164 208 195 177 151 132 129 186 180 157 174 209 198 178 184 191 182 158 118 109 102 87 74 64 59 55 57 64 72 86 97 110 124 124 118 115 119 129 145 155 161 167 168 165 166 170 175 178 181 182 184 186 191 198 206 213 220 225 227 229 229 229 228 227 226 227 228 228 228 230 231 231 232
209 204 196 188 198 206 203 212 224 156 170 161 129 121 159 135 135 150 136 136 186 204 173 167 193 192 175 161 151 148 159 167 158 139 124 111 91 87 91 86 88 98 105 107 115 126 127 123 122 121 125 139 152 159 166 171 167 163 163 167 173 177 178 181 187 193 200 207 213 218 221 223 225 227 227 227 228 226 226 227 227 227 229 230 231 232
274 254 181 147 193 245 262 166 84 338 212 183 39 4 106 98 121 149 122 125 175 183 166 169 174 171 168 161 148 148 172 167 147 127 126 124 111 108 108 101 103 113 115 111 115 126 128 124 123 122 121 126 141 152 158 166 168 161 160 164 169 172 174 178 183 188 195 202 208 212 215 218 219 222 224 225 227 228 229 230 229 229 229 230 230 233
288 207 119 107 178 192 226 204 163 175 210 192 166 317 197 154 247 188 136 146 164 160 173 188 167 154 163 170 160 154 160 155 142 137 139 131 123 124 119 108 105 107 109 112 118 126 127 121 118 118 116 117 128 139 144 149 153 151 152 154 153 155 161 168 175 181 187 194 200 204 208 212 213 216 218 221 224 226 228 230 231 230 231 232 232 234
234 145 123 219 199 176 202 211 170 296 276 237 216 219 197 196 222 224 166 129 119 119 144 168 151 151 165 177 165 149 147 155 154 149 147 146 144 142 134 127 122 113 112 120 129 132 129 123 121 120 118 117 123 130 131 130 130 134 139 142 143 147 153 160 168 176 181 186 192 197 201 206 210 212 214 217 220 223 225 228 231 233 236 238 239 240
134 140 160 179 183 255 281 203 156 317 293 251 223 220 209 187 173 154 113 111 114 116 122 117 112 154 169 174 164 146 144 164 171 154 148 154 153 148 145 140 133 126 125 130 137 140 136 131 130 128 124 122 127 128 124 120 122 127 132 137 143 150 156 160 166 173 177 181 187 191 195 201 206 210 214 217 218 221 227 232 236 239 243 246 248 248
144 167 169 121 147 246 244 185 164 172 228 222 211 207 203 182 156 142 131 137 149 154 146 125 84 67 130 152 156 151 150 160 168 156 151 155 154 152 150 140 130 128 129 130 135 140 139 137 136 133 127 125 129 128 122 119 121 124 128 133 140 149 160 166 167 169 174 179 183 187 192 198 204 209 216 221 222 224 229 234 239 242 243 246 249 252
179 180 175 165 191 226 203 170 169 169 189 223 201 185 179 167 151 154 166 173 179 181 167 148 129 117 123 121 136 152 155 155 157 153 145 144 147 147 148 145 140 136 136 137 139 138 135 136 137 132 128 129 133 132 128 126 125 127 133 138 141 144 151 160 163 162 165 172 178 184 191 198 206 211 215 219 222 224 227 231 236 241 244 246 249 252